702  
ASUS44 KLCH 180010  
RWRLCH  
REGIONAL WEATHER ROUNDUP  
NATIONAL WEATHER SERVICE LAKE CHARLES LA  
600 PM CST SUN FEB 17 2019  
 
NOTE: "FAIR" INDICATES FEW OR NO CLOUDS BELOW 12,000 FEET WITH NO  
SIGNIFICANT WEATHER AND/OR S TO VISIBILITY
.  
 
ACROSS SOUTHEAST TEXAS  
 
CITY SKY/WX TMP DP RH WIND PRES REMARKS
 
BEAUMONT CLOUDY 53 48 83 N17 29.87R  
BEAUMONT CITY NOT AVBL  
ORANGE CLOUDY 52 51 97 N10G16 29.90R  
JASPER MOCLDY 52 46 78 N6 29.95R  

 
 
ACROSS CENTRAL LOUISIANA  
 
CITY SKY/WX TMP DP RH WIND PRES REMARKS
 
LEESVILLE CLOUDY 46 43 90 N8 29.91R  
FULLERTON CLOUDY 47 45 93 VRB7 29.89R  
ALEXANDRIA INT LGT RAIN 47 44 90 N12 29.92R  
ESLER FIELD CLOUDY 46 45 96 N7 29.93R  
DERIDDER CLOUDY 48 47 95 N13G18 29.93R  
OAKDALE CLOUDY 49 47 92 N9 29.91R  
OPELOUSAS DRIZZLE 50 49 93 N14 29.88R  

 
 
ACROSS SOUTHWEST AND SOUTH CENTRAL LOUISIANA  
 
CITY SKY/WX TMP DP RH WIND PRES REMARKS
 
DEQUINCY CLOUDY 49 46 90 N9G16 29.90R  
SULPHUR CLOUDY 52 50 93 N15 29.88R  
LAKE CHARLES CLOUDY 53 49 86 N15 29.87R  
CHENNAULT INT LGT RAIN 52 50 93 N13G20 29.88R FOG  
CAMERON PHI CLOUDY 55 55 100 N21 29.84R  
GRAND CHENIER CLOUDY 57 57 100 N14G21 29.85R  
JENNINGS CLOUDY 53 52 97 N12 29.87R FOG  
LAFAYETTE LGT RAIN 55 54 96 N15G26 29.86R  
NEW IBERIA LGT RAIN 56 54 93 N24 29.85R  
ABBEVILLE CLOUDY 55 55 100 NW16G25 29.85R  
PATTERSON CLOUDY 72 70 93 SW5 29.80R  
SALT POINT N/A N/A N/A N/A SE5 29.78R  

 
 
SELECTED SITES ACROSS THE REGION  
 
CITY SKY/WX TMP DP RH WIND PRES REMARKS
 
HOUSTON BUSH PTCLDY 59 46 62 N13 29.88R  
HOUSTON HOBBY MOCLDY 60 46 59 N17 29.86R  
GALVESTON MOCLDY 56 49 77 N23G33 29.85R  
COLLEGE STAT CLEAR 56 38 50 N15G23 29.92R  
CONROE CLEAR 54 43 66 N9 29.91R  
HUNTSVILLE MOCLDY 51 41 68 VRB5 29.92R  
LUFKIN CLOUDY 51 40 65 N7 29.93R  
SHREVEPORT CLOUDY 49 39 68 NE5 29.95R  
MONROE CLOUDY 45 44 97 N8 29.96R  
NATCHEZ MS LGT RAIN 46 44 93 N10 29.93R  
BATON ROUGE CLOUDY 59 53 80 N18G25 29.84R  
N.O. INTL ARPT FAIR 75 71 87 S8 29.80R  
SLIDELL CLOUDY 74 67 78 S7 29.80R  

 
 
MARINE REPORTS  
 
STATION/POSITION TIME SKY/WX TEMP WIND PRES VSBY
 
AIR SEA DIR/SP/G  
(UTC) (F) (DEG/KT/KT) (MB) (MI)  
BUOY 30 S HIGH I 2350 56 62 10/ 21/ 27 1011.0R  
WVE H/P(F/S)= 4/ 4  
 
SEA RIM ST PARK 0000 52 360/ 15/ 18 1011.4R  
PORT ARTHUR 2336 53 60 350/ 14/ 19 1011.5R  
SABINE PASS N 2336 54 64 10/ 18/ 23 1012.5R  
TEXAS POINT NOT AVBL  
CALCASIEU PASS 2336 54 62 30/ 19/ 23 1009.4R  
LK CHARLES BEACH 2348 51 62 1011.5R  
MARSH ISLAND 2300 63 N/A  
FRESH WATER LOCK 2348 60 68 340/ 17/ 22 1009.3R  
AMERADA PASS 2348 72 57 160/ 2/ 4 1009.0R  

 
 
 
CLICK HERE TO GO TO PREVIOUS BULLETINS.

The Nexlab LA Page
The Nexlab TX Page Main Text Page